[[{"header":{"parameterUnit":"m.s-1","parameterCategory":1,"la1":30.2991,"la2":30.254,"lo1":-89.0895,"lo2":-89.0444,"dy":0.0017,"dx":0.0017,"nx":28,"ny":28,"refTime":"2024-06-17T21:00:00:Z","depth":0,"parameterNumber":2,"parameterNumberName":"U-component_of_WINDS"},"data":[0,0,0,0,0,0,0,0,0,0,0,0,0,0,0,0,0,0,0,0,0,0,0,0,0,0,0,0,0,0,0,0,0,0,0,0,0,0,0,0,0,0,0,0,0,0,0,0,0,0,0,0,0,0,0,0,0,0,-9.3483,-9.3483,0,-9.3475,-9.3475,-9.3475,-9.3203,-9.3196,-9.3189,-9.3182,-9.3176,-9.3182,-9.3189,0,0,0,0,0,0,0,0,0,0,0,0,0,-9.3265,-9.327,-9.3483,-9.3483,-9.3483,-9.3475,-9.3475,-9.3475,-9.3204,-9.3195,-9.3187,-9.3179,-9.3174,-9.3182,-9.3189,0,0,0,0,0,0,0,0,0,0,0,0,0,-9.3319,-9.3272,-9.3483,-9.3347,-9.3334,-9.3475,-9.3475,-9.3475,-9.3206,-9.3195,-9.3185,-9.3175,-9.3171,-9.3181,-9.319,-9.3462,0,0,-9.322,-9.3224,0,0,0,0,0,0,0,0,-9.3316,-9.3327,-9.3367,-9.3356,-9.3343,-9.3329,-9.3395,-9.3471,-9.3208,-9.3255,-9.3182,-9.3169,-9.3236,-9.3239,-9.3261,-9.3461,-9.3461,-9.3221,-9.3226,-9.3231,-9.3233,0,0,0,0,0,0,0,-9.3313,-9.3326,-9.348,-9.3368,-9.3353,-9.3286,-9.3282,-9.3409,-9.3305,-9.325,-9.323,-9.3233,-9.3227,-9.3253,-9.3259,-9.3461,-9.322,-9.3229,-9.3235,-9.3239,-9.3882,-9.3893,0,0,0,0,0,0,-9.3327,-9.3325,-9.348,-9.348,-9.3303,-9.3299,-9.3294,-9.3344,-9.3303,-9.3286,-9.3242,-9.322,-9.3241,-9.3248,-9.3258,-9.3571,-9.323,-9.324,-9.3245,-9.3871,-9.3885,-9.3897,0,0,0,0,0,0,-9.3324,-9.3344,-9.348,-9.3397,-9.3409,-9.3314,-9.3372,-9.335,-9.3374,-9.3296,-9.3277,-9.3287,-9.3233,-9.3244,-9.3412,-9.3567,-9.3244,-9.3253,-9.3857,-9.3875,-9.3891,-9.4202,0,0,0,0,0,0,-9.3319,-9.3344,-9.3446,-9.3401,-9.3415,-9.3636,-9.3382,-9.3357,-9.3392,-9.3363,-9.3333,-9.3318,-9.3226,-9.34,-9.3422,-9.3574,-9.326,-9.3843,-9.3865,-9.3885,-9.4177,-9.4227,-9.427,0,0,0,0,0,-9.3312,-9.3535,-9.3453,-9.3473,-9.354,-9.3645,-9.3653,-9.3541,-9.3405,-9.3507,-9.3457,-9.3319,-9.3547,-9.3419,-9.3442,-9.36,-9.3833,-9.3859,-9.3884,-9.4156,-9.4217,-9.4269,0,0,0,0,0,0,-9.3601,-9.3526,-9.3434,-9.3649,-9.3656,-9.3599,-9.3724,-9.361,-9.3655,-9.3627,-9.3487,-9.3482,-9.3673,-9.3653,-9.3512,-9.386,-9.3666,-9.3697,-9.3865,-9.3923,-9.3968,-9.3968,-9.3268,0,0,0,0,0,-9.369,-9.3782,-9.3711,-9.3908,-9.3916,-9.3821,-9.3862,-9.3775,-9.3776,-9.3778,-9.3739,-9.3747,-9.3819,-9.387,-9.3932,-9.4174,-9.4162,-9.4293,-9.434,-9.4378,-9.4407,-9.4531,-9.4588,-9.398,-9.398,-9.398,0,0,-9.3875,-9.3845,-9.3911,-9.3965,-9.396,-9.4058,-9.3824,-9.3938,-9.4009,-9.3795,-9.395,-9.3924,-9.3922,-9.4128,-9.4217,-9.4117,-9.4572,-9.4411,-9.4442,-9.4449,-9.4563,-9.4621,-9.4672,-9.3998,-9.3994,-9.3992,0,0,-9.426,-9.4248,-9.4409,-9.4408,-9.4403,-9.4338,-9.4377,-9.4338,-9.4311,-9.4466,-9.4307,-9.439,-9.4519,-9.4523,-9.4543,-9.4931,-9.4806,-9.4956,-9.5198,-9.5321,-9.5369,-9.541,-9.5547,-9.5598,-9.4984,-9.4985,-9.4986,0,-9.449,-9.463,-9.4507,-9.463,-9.4658,-9.4469,-9.4631,-9.4637,-9.4654,-9.4677,-9.4566,-9.4723,-9.4709,-9.4912,-9.5007,-9.503,-9.5069,-9.4957,-9.5372,-9.5412,-9.5449,-9.5578,-9.5631,-9.5003,-9.5001,-9.4999,-9.4998,0,-9.4912,-9.5013,-9.5144,-9.5163,-9.5206,-9.5349,-9.5247,-9.5306,-9.5216,-9.5163,-9.5323,-9.5299,-9.5353,-9.5395,-9.5309,-9.5587,-9.5525,-9.5396,-9.5198,-9.5528,-9.5646,-9.5695,-9.5029,-9.5023,-9.5017,-9.5013,0,0,-9.5478,-9.5427,-9.5477,-9.5483,-9.5464,-9.5539,-9.5674,-9.5725,-9.5778,-9.5796,-9.5905,-9.6018,-9.5898,-9.592,-9.5833,-9.5942,-9.6249,-9.5798,-9.5795,-9.5881,-9.6552,-9.6648,-9.6708,-9.6167,-9.6176,-9.6183,-9.6551,0,-9.5849,-9.6074,-9.5967,-9.6205,-9.6296,-9.6118,-9.6234,-9.6236,-9.6191,-9.6261,-9.621,-9.6292,-9.6128,-9.614,-9.624,-9.6191,-9.6382,-9.6163,-9.6266,-9.6271,-9.627,-9.677,-9.6872,-9.7221,-9.6597,-9.6605,-9.6611,0,-9.6312,-9.6348,-9.6595,-9.6558,-9.6592,-9.6699,-9.6737,-9.6807,-9.6805,-9.6764,-9.679,-9.6678,-9.6807,-9.6613,-9.6789,-9.6643,-9.6679,-9.6661,-9.6672,-9.6675,-9.646,-9.6785,-9.7329,-9.7381,-9.6683,-9.6677,-9.6672,0,-9.6698,-9.6809,-9.697,-9.6981,-9.6942,-9.7021,-9.7009,-9.6996,-9.7034,-9.7069,-9.7092,-9.7142,-9.7169,-9.7211,-9.7115,-9.6983,-9.7305,-9.7102,-9.7274,-9.7277,-9.7347,-9.7344,-9.7903,-9.7376,-9.7375,-9.7374,-9.7373,0,-9.7121,-9.7279,-9.7142,-9.7242,-9.7413,-9.7289,-9.7462,-9.7431,-9.7421,-9.7511,-9.7362,-9.745,-9.7319,-9.7394,-9.7321,-9.7477,-9.7491,-9.7461,-9.7439,-9.7474,-9.7477,-9.7494,-9.7466,-9.7388,-9.7385,-9.7382,-9.738,0,-9.758,-9.7495,-9.7659,-9.7609,-9.76,-9.7729,-9.7686,-9.7776,-9.772,-9.7837,-9.7857,-9.777,-9.7851,-9.776,-9.7835,-9.7785,-9.7996,-9.794,-9.7997,-9.798,-9.8155,-9.814,-9.8743,-9.8815,-9.8244,-9.825,-9.8255,0,-9.7855,-9.7972,-9.7935,-9.7984,-9.798,-9.8062,-9.81,-9.7983,-9.8028,-9.8035,-9.8124,-9.8192,-9.824,-9.8378,-9.8322,-9.8378,-9.832,-9.8528,-9.8328,-9.8358,-9.8321,-9.8315,-9.8325,-9.8569,-9.8576,-9.8581,-9.8586,0,-9.8352,-9.8304,-9.8363,-9.841,-9.8458,-9.8489,-9.8508,-9.8558,-9.8436,-9.8495,-9.8575,-9.8613,-9.8688,-9.8757,-9.8798,-9.8785,-9.8666,-9.865,-9.8692,-9.8727,-9.8754,-9.8739,-9.8106,-9.8636,-9.8631,-9.8627,-9.8624,-9.8622,-9.8725,-9.882,-9.8808,-9.888,-9.8882,-9.8904,-9.8985,-9.894,-9.9004,-9.9056,-9.8983,-9.9084,-9.9078,-9.9119,-9.9121,-9.9197,-9.9109,-9.9171,-9.9186,-9.9202,-9.9228,-9.8744,-9.9205,-9.9203,-9.9202,-9.92,-9.9199,0,-9.9212,-9.9195,-9.9263,-9.9294,-9.935,-9.9233,-9.9249,-9.9304,-9.9393,-9.9398,-9.9448,-9.9541,-9.9607,-9.9557,-9.9613,-9.9684,-9.9631,-9.9703,-9.9695,-9.9694,-9.9305,-9.9262,-9.9745,-9.9745,-9.9745,-9.9744,-9.9744,-9.9744,-9.9471,-9.9625,-9.9577,-9.973,-9.9712,-9.9808,-9.9827,-9.9846,-9.9849,-9.9959,-10.0013,-9.998,-9.9963,-10.0016,-10.0072,-10.0056,-10.0082,-10.0174,-10.0138,-9.9775,-9.9721,-9.967,-9.9629,-10.0181,-10.0182,-10.052,-10.0523,-10.0525]},{"header":{"parameterUnit":"m.s-1","parameterCategory":1,"la1":30.2991,"la2":30.254,"lo1":-89.0895,"lo2":-89.0444,"dy":0.0017,"dx":0.0017,"nx":28,"ny":28,"refTime":"2024-06-17T21:00:00:Z","depth":0,"parameterNumber":3,"parameterNumberName":"V-component_of_WINDS"},"data":[0,0,0,0,0,0,0,0,0,0,0,0,0,0,0,0,0,0,0,0,0,0,0,0,0,0,0,0,0,0,0,0,0,0,0,0,0,0,0,0,0,0,0,0,0,0,0,0,0,0,0,0,0,0,0,0,0,0,-2.0573,-2.0573,0,-2.0632,-2.0633,-2.0634,-2.0666,-2.0666,-2.0666,-2.0666,-2.0723,-2.0725,-2.0726,0,0,0,0,0,0,0,0,0,0,0,0,0,-2.0482,-2.0483,-2.0573,-2.0573,-2.0574,-2.0632,-2.0633,-2.0634,-2.0666,-2.0666,-2.0666,-2.0666,-2.0723,-2.0724,-2.0726,0,0,0,0,0,0,0,0,0,0,0,0,0,-2.0529,-2.0484,-2.0573,-2.0597,-2.06,-2.0632,-2.0633,-2.0634,-2.0666,-2.0666,-2.0666,-2.0666,-2.0722,-2.0724,-2.0726,-2.0737,0,0,-2.0733,-2.0734,0,0,0,0,0,0,0,0,-2.0526,-2.0532,-2.0593,-2.0596,-2.0599,-2.0642,-2.0622,-2.0668,-2.0666,-2.0641,-2.0666,-2.0666,-2.0696,-2.07,-2.0711,-2.074,-2.0742,-2.0733,-2.0735,-2.0735,-2.0736,0,0,0,0,0,0,0,-2.0523,-2.053,-2.0596,-2.0594,-2.0597,-2.0604,-2.0611,-2.0631,-2.0667,-2.0643,-2.0646,-2.0652,-2.0697,-2.0709,-2.0712,-2.0743,-2.0733,-2.0735,-2.0736,-2.0737,-2.0782,-2.0782,0,0,0,0,0,0,-2.0516,-2.0527,-2.0594,-2.0598,-2.0562,-2.0605,-2.0613,-2.0628,-2.0667,-2.0673,-2.0652,-2.0654,-2.0705,-2.071,-2.0715,-2.0729,-2.0735,-2.0737,-2.0739,-2.0782,-2.0782,-2.0782,0,0,0,0,0,0,-2.0514,-2.0522,-2.0592,-2.0563,-2.0573,-2.0607,-2.0623,-2.0629,-2.0641,-2.0674,-2.068,-2.0658,-2.0705,-2.0712,-2.0731,-2.0731,-2.0738,-2.074,-2.0782,-2.0782,-2.0782,-2.0758,0,0,0,0,0,0,-2.0512,-2.0521,-2.0527,-2.0563,-2.0574,-2.0609,-2.0623,-2.063,-2.0645,-2.0647,-2.068,-2.0686,-2.0706,-2.0728,-2.0733,-2.0734,-2.0742,-2.0782,-2.0782,-2.0782,-2.0759,-2.0757,-2.0755,0,0,0,0,0,-2.0508,-2.0517,-2.0527,-2.0535,-2.0582,-2.0609,-2.0615,-2.0639,-2.0645,-2.065,-2.0671,-2.0685,-2.073,-2.073,-2.0736,-2.0738,-2.0782,-2.0782,-2.0782,-2.0759,-2.0757,-2.0755,0,0,0,0,0,0,-2.0479,-2.0523,-2.0534,-2.0555,-2.0578,-2.0614,-2.0622,-2.0636,-2.0657,-2.0658,-2.0686,-2.0693,-2.071,-2.0726,-2.0724,-2.0749,-2.0758,-2.0759,-2.0738,-2.0736,-2.0735,-2.073,-2.0744,0,0,0,0,0,-2.0475,-2.0495,-2.0531,-2.0546,-2.0557,-2.0587,-2.06,-2.0616,-2.0641,-2.065,-2.0673,-2.0695,-2.0714,-2.0726,-2.0746,-2.0761,-2.0768,-2.0765,-2.0763,-2.0762,-2.0762,-2.077,-2.0769,-2.0781,-2.0781,-2.0781,0,0,-2.0467,-2.0493,-2.0504,-2.0541,-2.0561,-2.0579,-2.0595,-2.0614,-2.0627,-2.0653,-2.0673,-2.069,-2.0716,-2.0733,-2.0742,-2.0747,-2.076,-2.0761,-2.076,-2.0761,-2.0769,-2.0768,-2.0767,-2.0781,-2.0781,-2.0781,0,0,-2.0462,-2.0484,-2.0499,-2.0518,-2.0548,-2.0568,-2.0571,-2.0605,-2.0618,-2.0639,-2.0658,-2.0673,-2.0706,-2.0723,-2.0737,-2.0736,-2.0749,-2.0742,-2.0732,-2.074,-2.0739,-2.0738,-2.0737,-2.0736,-2.0742,-2.0742,-2.0742,0,-2.0448,-2.0478,-2.0504,-2.0522,-2.0537,-2.0562,-2.0576,-2.0593,-2.0627,-2.0636,-2.0641,-2.0682,-2.0702,-2.0723,-2.0722,-2.0733,-2.0736,-2.0738,-2.0737,-2.0737,-2.0736,-2.0735,-2.0735,-2.0741,-2.0741,-2.0741,-2.0741,0,-2.0458,-2.0478,-2.0486,-2.052,-2.0536,-2.0551,-2.0578,-2.0591,-2.0605,-2.0624,-2.0643,-2.0667,-2.0692,-2.0698,-2.0712,-2.072,-2.0722,-2.0732,-2.0741,-2.0733,-2.0733,-2.0733,-2.0739,-2.0739,-2.074,-2.074,0,0,-2.0437,-2.0485,-2.0487,-2.0502,-2.0536,-2.0552,-2.0567,-2.0592,-2.0602,-2.0624,-2.0637,-2.0663,-2.0672,-2.0687,-2.0703,-2.0709,-2.0706,-2.0718,-2.0719,-2.0714,-2.0715,-2.0707,-2.0707,-2.0715,-2.0715,-2.0715,-2.0713,0,-2.0437,-2.0468,-2.0492,-2.0513,-2.0531,-2.0554,-2.0567,-2.0589,-2.0606,-2.0622,-2.064,-2.0659,-2.0669,-2.0678,-2.0686,-2.0705,-2.0706,-2.0705,-2.0726,-2.0726,-2.0718,-2.0707,-2.0699,-2.0696,-2.0713,-2.0713,-2.0713,0,-2.0441,-2.0463,-2.0487,-2.0518,-2.0526,-2.0538,-2.0562,-2.0578,-2.0601,-2.0613,-2.0629,-2.0646,-2.0661,-2.0669,-2.069,-2.0688,-2.0698,-2.0708,-2.0709,-2.0711,-2.0719,-2.0709,-2.0696,-2.0695,-2.0713,-2.0713,-2.0713,0,-2.0422,-2.0458,-2.0476,-2.0489,-2.0526,-2.0533,-2.0549,-2.0573,-2.0586,-2.0606,-2.0614,-2.0635,-2.0647,-2.0662,-2.0683,-2.0686,-2.0701,-2.0711,-2.071,-2.071,-2.0712,-2.0712,-2.07,-2.0719,-2.0719,-2.0719,-2.0719,0,-2.0419,-2.0432,-2.0469,-2.048,-2.0495,-2.0521,-2.0534,-2.0551,-2.0572,-2.0586,-2.0606,-2.0618,-2.0646,-2.066,-2.0677,-2.0691,-2.0696,-2.0705,-2.0709,-2.0703,-2.0701,-2.0709,-2.071,-2.0719,-2.0719,-2.0719,-2.0719,0,-2.0402,-2.0427,-2.0448,-2.0481,-2.049,-2.0499,-2.0526,-2.0537,-2.0555,-2.0572,-2.0577,-2.0605,-2.0623,-2.0645,-2.0671,-2.0682,-2.0694,-2.07,-2.0686,-2.0688,-2.0686,-2.0686,-2.0679,-2.0679,-2.0698,-2.0698,-2.0698,0,-2.0398,-2.0409,-2.0443,-2.0454,-2.0469,-2.0487,-2.05,-2.0525,-2.0538,-2.0565,-2.0572,-2.0592,-2.0609,-2.0637,-2.0658,-2.0677,-2.0684,-2.068,-2.0687,-2.068,-2.0683,-2.0682,-2.0682,-2.0678,-2.0678,-2.0678,-2.0677,0,-2.0389,-2.04,-2.0419,-2.0442,-2.0458,-2.0477,-2.0497,-2.0504,-2.0532,-2.0545,-2.0565,-2.0578,-2.0604,-2.0623,-2.0644,-2.0658,-2.0672,-2.0675,-2.0676,-2.067,-2.0661,-2.0665,-2.0681,-2.0675,-2.0675,-2.0676,-2.0676,-2.0676,-2.0378,-2.0388,-2.0413,-2.0433,-2.0451,-2.0468,-2.048,-2.0499,-2.0516,-2.054,-2.0553,-2.0571,-2.0593,-2.0623,-2.0637,-2.065,-2.0656,-2.0657,-2.0657,-2.0657,-2.0655,-2.0659,-2.0654,-2.0654,-2.0655,-2.0655,-2.0655,0,-2.0369,-2.0386,-2.0404,-2.0432,-2.0447,-2.0459,-2.0481,-2.0493,-2.0509,-2.0529,-2.0545,-2.0566,-2.0585,-2.0607,-2.0626,-2.0632,-2.0639,-2.0636,-2.0636,-2.0639,-2.0649,-2.0647,-2.0631,-2.0631,-2.0631,-2.0631,-2.0631,-2.0631,-2.0366,-2.0384,-2.0398,-2.0423,-2.044,-2.0459,-2.0471,-2.0486,-2.0502,-2.0525,-2.054,-2.0555,-2.0575,-2.0596,-2.0612,-2.0618,-2.0624,-2.0619,-2.0626,-2.0636,-2.0638,-2.064,-2.0638,-2.062,-2.062,-2.0615,-2.0615,-2.0615]}]]